EW9200 Weather Reports


Display with metric or nautical units.
time (UTC)temp
F
wind
direction
speed
MPH
gust
MPH
rain 1hr
in
rain 24hr
in
rain mn
in
humidity
%
barometer
mb
20260901220054 94 227 2.0 6.0 0.00 0.16 0.06 66 1013.8
20260901215530 94 222 1.0 7.0 0.00 0.16 0.06 66 1013.8
20260901215029 94 224 1.0 7.0 0.00 0.16 0.06 65 1013.9
20260901214604 94 203 3.0 7.0 0.00 0.16 0.06 64 1013.8
20260901214030 94 124 2.0 6.0 0.00 0.16 0.06 67 1013.8
20260901213531 94 177 1.0 5.0 0.00 0.16 0.06 70 1013.8
20260901213119 93 234 2.0 5.0 0.00 0.16 0.06 68 1013.8
20260901212530 93 153 2.0 5.0 0.00 0.16 0.06 68 1013.8
20260901212028 93 155 2.0 6.0 0.00 0.16 0.06 68 1013.8
20260901211547 93 160 2.0 6.0 0.00 0.16 0.06 69 1013.9
20260901211030 93 210 2.0 6.0 0.00 0.16 0.06 70 1013.9
20260901210532 94 142 2.0 7.0 0.00 0.16 0.06 68 1013.9
20260901210045 94 225 2.0 7.0 0.00 0.16 0.06 67 1014.1
20260901205529 94 226 1.0 6.0 0.00 0.16 0.06 68 1014.0
20260901205029 94 155 2.0 6.0 0.00 0.16 0.06 69 1014.0
20260901204551 94 213 2.0 7.0 0.00 0.16 0.06 69 1014.0
20260901204030 94 231 3.0 7.0 0.00 0.16 0.06 68 1014.0
20260901203530 94 160 2.0 6.0 0.00 0.16 0.06 68 1014.0
20260901203114 95 223 2.0 6.0 0.00 0.16 0.06 68 1014.0
20260901202529 95 193 1.0 6.0 0.00 0.16 0.06 69 1014.0
20260901202029 94 180 3.0 8.0 0.00 0.16 0.06 69 1014.2
20260901201555 94 171 2.0 8.0 0.00 0.16 0.06 71 1014.0
20260901201030 94 245 2.0 8.0 0.00 0.16 0.06 68 1014.1
20260901200531 94 196 2.0 8.0 0.00 0.16 0.06 68 1014.1
20260901200045 94 245 3.0 7.0 0.00 0.16 0.06 69 1014.0
20260901195529 94 218 3.0 7.0 0.00 0.16 0.06 68 1014.2
20260901195032 94 191 2.0 7.0 0.00 0.16 0.06 72 1014.2
20260901194603 94 250 4.0 10.0 0.00 0.16 0.06 69 1014.2
20260901194034 94 133 3.0 10.0 0.00 0.16 0.06 69 1014.3
20260901193531 94 212 3.0 10.0 0.00 0.16 0.06 68 1014.3
20260901193059 94 137 1.0 7.0 0.00 0.16 0.06 70 1014.4
20260901192527 94 217 2.0 7.0 0.00 0.16 0.06 71 1014.4
20260901192031 94 134 2.0 7.0 0.00 0.16 0.06 70 1014.4
20260901191609 93 174 2.0 7.0 0.00 0.16 0.06 72 1014.5
20260901191031 93 182 3.0 9.0 0.00 0.16 0.06 70 1014.5
20260901190528 93 130 2.0 9.0 0.00 0.16 0.06 72 1014.4
20260901190045 93 229 3.0 8.0 0.00 0.16 0.06 72 1014.5
20260901185528 93 214 3.0 6.0 0.00 0.16 0.06 72 1014.5
20260901185031 93 275 2.0 6.0 0.00 0.16 0.06 73 1014.7
20260901184553 93 200 2.0 6.0 0.00 0.16 0.06 71 1014.7
20260901184031 93 132 1.0 8.0 0.00 0.16 0.06 74 1014.8
20260901183531 92 188 2.0 8.0 0.00 0.16 0.06 74 1014.7
20260901183059 92 218 3.0 7.0 0.00 0.16 0.06 73 1014.7
20260901182533 92 166 2.0 8.0 0.00 0.16 0.06 74 1014.8
20260901182031 92 161 3.0 8.0 0.00 0.16 0.06 74 1014.8
20260901181547 92 196 4.0 8.0 0.00 0.16 0.06 74 1014.9
20260901181030 92 212 2.0 8.0 0.00 0.16 0.06 74 1014.8
20260901180529 92 178 3.0 6.0 0.00 0.16 0.06 74 1014.8
20260901180042 92 247 2.0 4.0 0.00 0.16 0.06 77 1014.9
20260901175532 92 208 2.0 6.0 0.00 0.16 0.06 76 1014.9
20260901175029 91 190 2.0 7.0 0.00 0.16 0.06 76 1014.9
20260901174557 91 231 2.0 7.0 0.00 0.16 0.06 76 1014.9
20260901174029 91 176 3.0 6.0 0.00 0.16 0.06 76 1015.0
20260901173532 91 170 3.0 7.0 0.00 0.16 0.06 77 1015.0
20260901173049 91 193 3.0 7.0 0.00 0.16 0.06 77 1015.0
20260901172532 91 150 2.0 7.0 0.00 0.16 0.06 76 1014.9
20260901172028 90 174 3.0 7.0 0.00 0.16 0.06 77 1015.1
20260901171555 90 162 2.0 7.0 0.00 0.16 0.06 78 1015.1
20260901171030 90 244 2.0 6.0 0.00 0.16 0.06 78 1015.0
20260901170527 90 198 3.0 6.0 0.00 0.16 0.06 77 1015.1
20260901170052 90 224 3.0 6.0 0.00 0.16 0.06 77 1015.1
20260901165530 90 244 2.0 6.0 0.00 0.16 0.06 77 1015.1
20260901165030 90 167 1.0 5.0 0.00 0.16 0.06 77 1015.1
20260901164559 89 167 2.0 6.0 0.00 0.16 0.06 79 1015.2
20260901164028 88 130 2.0 6.0 0.00 0.16 0.06 79 1015.1
20260901163528 88 233 2.0 7.0 0.00 0.16 0.06 78 1015.2
20260901163046 88 243 1.0 7.0 0.00 0.16 0.06 80 1015.4
20260901162530 88 187 2.0 7.0 0.00 0.16 0.06 79 1015.3
20260901162032 88 174 2.0 5.0 0.00 0.16 0.06 80 1015.3
20260901161553 88 215 2.0 5.0 0.00 0.16 0.06 80 1015.2
20260901161031 88 233 2.0 5.0 0.00 0.16 0.06 77 1015.2
20260901160531 88 166 1.0 4.0 0.00 0.16 0.06 79 1015.3
20260901160058 87 0 1.0 3.0 0.00 0.16 0.06 79 1015.4
20260901155529 87 27 1.0 5.0 0.00 0.20 0.06 81 1015.4
20260901155033 86 233 2.0 5.0 0.00 0.20 0.06 79 1015.4
20260901154557 86 211 2.0 5.0 0.00 0.20 0.06 81 1015.3
20260901154029 86 191 3.0 5.0 0.00 0.20 0.06 81 1015.2
20260901153531 86 206 1.0 5.0 0.00 0.20 0.06 80 1015.3
20260901153110 86 217 2.0 4.0 0.00 0.20 0.06 82 1015.1
20260901152530 85 83 1.0 4.0 0.00 0.20 0.06 81 1015.2
20260901152030 85 220 0.0 4.0 0.00 0.20 0.06 82 1015.2
20260901151555 85 224 0.0 4.0 0.00 0.20 0.06 81 1015.1
20260901151031 85 176 0.0 4.0 0.00 0.20 0.06 84 1015.1
20260901150529 84 212 0.0 3.0 0.00 0.20 0.06 83 1015.1
20260901150054 84 59 0.0 4.0 0.00 0.20 0.06 83 1015.1
20260901145529 84 217 2.0 4.0 0.00 0.24 0.06 85 1015.2
20260901145031 83 199 1.0 4.0 0.00 0.24 0.06 87 1015.1
20260901144555 83 190 2.0 4.0 0.00 0.24 0.06 89 1015.0
20260901144030 82 193 1.0 5.0 0.00 0.24 0.06 92 1015.0
20260901143527 80 237 1.0 5.0 0.00 0.24 0.06 99 1015.0
20260901143045 79 167 2.0 5.0 0.00 0.24 0.06 100 1015.0
20260901142528 78 191 1.0 5.0 0.00 0.24 0.06 100 1015.0
20260901142030 77 321 2.0 5.0 0.00 0.24 0.06 100 1015.0
20260901141552 77 197 0.0 5.0 0.00 0.24 0.06 100 1015.1
20260901141030 76 221 1.0 3.0 0.00 0.24 0.06 100 1015.0
20260901140531 76 0 0.0 3.0 0.00 0.24 0.06 100 1015.1
20260901140047 76 217 1.0 6.0 0.00 0.24 0.06 100 1015.1
20260901135530 75 204 1.0 6.0 0.00 0.35 0.06 100 1015.0
20260901135030 75 172 1.0 3.0 0.00 0.35 0.06 100 1015.1
20260901134552 75 190 0.0 2.0 0.00 0.35 0.06 100 1015.2
20260901134028 74 229 0.0 3.0 0.00 0.35 0.06 100 1015.2
20260901133618 74 167 0.0 3.0 0.00 0.35 0.06 100 1015.1
20260901133050 74 207 0.0 2.0 0.00 0.35 0.06 100 1015.1
20260901132528 74 0 0.0 3.0 0.00 0.35 0.06 100 1015.1
20260901132030 74 218 0.0 3.0 0.00 0.35 0.06 100 1015.2
20260901131547 73 0 1.0 3.0 0.00 0.35 0.06 100 1015.4
20260901131028 73 228 0.0 2.0 0.00 0.35 0.06 100 1015.3
20260901130530 73 0 0.0 2.0 0.00 0.35 0.06 100 1015.3
20260901130052 73 0 0.0 1.0 0.00 0.35 0.06 100 1015.4
20260901125528 73 0 0.0 2.0 0.00 0.35 0.06 100 1015.5
20260901125030 73 0 0.0 2.0 0.00 0.35 0.06 100 1015.5
20260901124549 73 0 0.0 2.0 0.00 0.35 0.06 100 1015.5
20260901124029 73 0 0.0 1.0 0.00 0.35 0.06 100 1015.3
20260901123528 73 0 0.0 0.0 0.00 0.35 0.06 100 1015.3
20260901123045 73 0 0.0 0.0 0.00 0.35 0.06 100 1015.2
20260901122529 73 0 0.0 0.0 0.00 0.35 0.06 100 1015.2
20260901122028 73 0 0.0 0.0 0.01 0.35 0.06 100 1015.1
20260901121553 72 0 0.0 0.0 0.01 0.35 0.06 100 1015.1
20260901121029 72 0 0.0 0.0 0.01 0.35 0.06 100 1015.0
20260901120529 72 0 0.0 0.0 0.01 0.35 0.06 100 1015.0
20260901120050 72 0 0.0 0.0 0.01 0.35 0.06 100 1015.0
20260901115530 72 0 0.0 0.0 0.01 0.35 0.06 100 1014.8
20260901115030 72 0 0.0 0.0 0.01 0.35 0.06 100 1014.7
20260901114543 73 0 0.0 0.0 0.01 0.35 0.06 100 1014.7
20260901114029 73 0 0.0 0.0 0.01 0.35 0.06 100 1014.6
20260901113529 73 0 0.0 1.0 0.01 0.35 0.06 100 1014.5
20260901113053 73 0 0.0 1.0 0.01 0.35 0.06 100 1014.5
20260901112528 72 0 0.0 1.0 0.01 0.35 0.06 100 1014.6
20260901112030 72 0 0.0 0.0 0.00 0.34 0.05 100 1014.7
20260901111551 72 0 0.0 2.0 0.00 0.34 0.05 100 1014.5
20260901111027 73 0 0.0 2.0 0.00 0.34 0.05 100 1014.4
20260901110530 72 223 0.0 1.0 0.00 0.34 0.05 100 1014.3
20260901110048 72 0 0.0 1.0 0.01 0.34 0.05 100 1014.1
20260901105530 73 0 0.0 1.0 0.01 0.34 0.05 100 1014.2
20260901105030 72 251 0.0 1.0 0.03 0.34 0.05 100 1014.2
20260901104547 73 0 0.0 0.0 0.03 0.34 0.05 100 1014.1
20260901104030 73 0 0.0 2.0 0.03 0.34 0.05 100 1014.0
20260901103529 73 0 0.0 2.0 0.03 0.34 0.05 100 1014.0
20260901103042 73 0 0.0 1.0 0.03 0.34 0.05 100 1013.9
20260901102532 73 0 0.0 3.0 0.03 0.34 0.05 100 1014.1
20260901102031 73 159 0.0 3.0 0.03 0.34 0.05 100 1013.9
20260901101609 73 0 0.0 2.0 0.03 0.34 0.05 100 1014.0
20260901101030 73 0 0.0 2.0 0.03 0.34 0.05 100 1014.0
20260901100532 73 0 0.0 3.0 0.03 0.34 0.05 100 1014.1
20260901100046 73 141 1.0 3.0 0.02 0.33 0.04 100 1014.2
20260901095530 73 148 0.0 1.0 0.02 0.33 0.04 100 1014.1
20260901095031 73 0 0.0 1.0 0.00 0.31 0.02 100 1014.1
20260901094544 73 0 0.0 1.0 0.00 0.31 0.02 100 1014.2
20260901094029 73 0 0.0 1.0 0.00 0.31 0.02 100 1014.2
20260901093529 73 196 0.0 0.0 0.00 0.31 0.02 100 1014.1
20260901093054 73 0 0.0 0.0 0.00 0.31 0.02 100 1014.1
20260901092526 73 0 0.0 1.0 0.02 0.31 0.02 100 1014.0
20260901092030 73 0 0.0 1.0 0.02 0.31 0.02 100 1014.1
20260901091550 73 0 0.0 0.0 0.02 0.31 0.02 100 1014.1
20260901091027 73 0 0.0 0.0 0.02 0.31 0.02 100 1014.1
20260901090528 73 0 0.0 1.0 0.02 0.31 0.02 100 1013.8
20260901090044 73 0 0.0 1.0 0.02 0.31 0.02 100 1013.8
20260901085529 73 0 0.0 1.0 0.02 0.31 0.02 100 1013.9
20260901085027 73 0 0.0 1.0 0.02 0.31 0.02 100 1013.9
20260901084553 74 0 0.0 1.0 0.02 0.31 0.02 99 1013.9
20260901084029 74 225 0.0 3.0 0.02 0.31 0.02 98 1013.8
20260901083530 75 46 0.0 4.0 0.02 0.31 0.02 97 1013.9
20260901083053 76 250 1.0 4.0 0.02 0.31 0.02 90 1014.0
20260901082530 76 220 2.0 5.0 0.00 0.29 0.00 89 1013.9
20260901082028 76 213 1.0 5.0 0.00 0.29 0.00 89 1013.8
20260901081551 76 236 0.0 3.0 0.00 0.29 0.00 89 1013.9
20260901081030 76 0 0.0 3.0 0.00 0.29 0.00 89 1013.9
20260901080530 76 0 1.0 3.0 0.00 0.29 0.00 89 1013.8
20260901080055 76 0 0.0 1.0 0.00 0.29 0.00 90 1013.8
20260901075530 76 0 0.0 1.0 0.00 0.29 0.00 90 1013.8
20260901075034 76 0 0.0 1.0 0.00 0.29 0.00 90 1013.7
20260901074613 76 0 0.0 2.0 0.00 0.29 0.00 89 1013.7
20260901074029 76 212 0.0 3.0 0.00 0.29 0.00 89 1013.8
20260901073527 76 0 0.0 3.0 0.00 0.29 0.00 89 1013.8
20260901073052 76 0 0.0 2.0 0.00 0.29 0.00 90 1013.8
20260901072527 76 128 0.0 4.0 0.00 0.29 0.00 89 1013.9
20260901072027 76 165 1.0 4.0 0.00 0.29 0.00 89 1013.9
20260901071547 76 239 0.0 3.0 0.00 0.29 0.00 89 1013.7
20260901071030 76 233 0.0 3.0 0.00 0.29 0.00 89 1013.7
20260901070529 76 227 1.0 3.0 0.00 0.29 0.00 90 1013.7
20260901070046 76 0 0.0 5.0 0.00 0.29 0.00 90 1013.7
20260901065528 76 240 1.0 5.0 0.00 0.29 0.00 90 1013.7
20260901065029 76 236 0.0 2.0 0.00 0.29 0.00 91 1013.6
20260901064543 76 230 0.0 3.0 0.00 0.29 0.00 91 1013.7
20260901064030 76 201 0.0 3.0 0.00 0.29 0.00 91 1013.7
20260901063529 76 0 0.0 3.0 0.00 0.29 0.00 91 1013.7
20260901063101 76 200 0.0 1.0 0.00 0.29 0.00 91 1013.6
20260901062529 76 0 0.0 2.0 0.00 0.29 0.00 91 1013.5
20260901062033 76 0 0.0 3.0 0.00 0.29 0.00 91 1013.5
20260901061549 76 158 0.0 3.0 0.00 0.29 0.00 91 1013.5
20260901061030 76 217 0.0 3.0 0.00 0.29 0.00 91 1013.6
20260901060530 76 172 0.0 2.0 0.00 0.29 0.00 91 1013.5
20260901060050 76 226 0.0 1.0 0.00 0.29 0.00 92 1013.6
20260901055529 76 0 0.0 2.0 0.00 0.29 0.00 92 1013.6
20260901055031 76 229 0.0 2.0 0.00 0.29 0.00 92 1013.5
20260901054546 76 152 0.0 2.0 0.00 0.29 0.00 92 1013.7
20260901054028 76 171 0.0 2.0 0.00 0.29 0.00 92 1013.7
20260901053529 76 158 0.0 2.0 0.00 0.29 0.00 92 1013.7
20260901053111 76 155 0.0 2.0 0.00 0.29 0.00 92 1013.7
20260901052529 76 219 0.0 1.0 0.00 0.29 0.00 93 1013.5
20260901052031 76 143 0.0 1.0 0.00 0.29 0.00 93 1013.7
20260901051609 76 138 0.0 1.0 0.00 0.29 0.00 93 1013.5
20260901051029 76 0 0.0 0.0 0.00 0.29 0.00 93 1013.8
20260901050529 76 0 0.0 0.0 0.00 0.29 0.00 93 1013.7
20260901050052 76 0 0.0 0.0 0.00 0.29 0.00 93 1013.7
20260901045529 76 0 0.0 0.0 0.00 0.29 0.29 93 1013.9
20260901045031 76 0 0.0 0.0 0.00 0.29 0.29 93 1013.8
20260901044547 76 0 0.0 0.0 0.00 0.29 0.29 94 1013.8
20260901044029 76 0 0.0 0.0 0.00 0.29 0.29 94 1013.9
20260901043529 76 0 0.0 0.0 0.00 0.29 0.29 94 1013.9
20260901043044 76 0 0.0 0.0 0.00 0.29 0.29 94 1013.9
20260901042529 76 0 0.0 0.0 0.00 0.29 0.29 95 1013.9
20260901042029 76 0 0.0 0.0 0.00 0.29 0.29 96 1014.0
20260901041608 76 0 0.0 0.0 0.00 0.29 0.29 96 1014.0
20260901041029 76 0 0.0 0.0 0.00 0.29 0.29 96 1014.0
20260901040529 76 0 0.0 0.0 0.00 0.29 0.29 96 1014.0
20260901040056 77 0 0.0 0.0 0.00 0.29 0.29 95 1013.9
20260901035527 77 0 0.0 0.0 0.00 0.29 0.29 95 1013.9
20260901035027 77 0 0.0 0.0 0.00 0.29 0.29 95 1013.9
20260901034547 77 0 0.0 0.0 0.00 0.29 0.29 95 1013.8
20260901034030 77 0 0.0 1.0 0.00 0.29 0.29 96 1013.7
20260901033530 77 0 0.0 1.0 0.00 0.29 0.29 96 1013.7
20260901033045 77 0 0.0 1.0 0.00 0.29 0.29 97 1013.8
20260901032530 77 0 0.0 1.0 0.00 0.29 0.29 99 1013.8
20260901032026 77 0 0.0 2.0 0.00 0.29 0.29 100 1013.9
20260901031554 77 229 0.0 2.0 0.00 0.29 0.29 100 1013.9
20260901031032 77 162 0.0 2.0 0.00 0.29 0.29 100 1013.9
20260901030529 77 0 0.0 2.0 0.00 0.29 0.29 100 1014.0
20260901030050 77 150 0.0 2.0 0.00 0.29 0.29 100 1013.9
20260901025527 77 206 0.0 2.0 0.00 0.30 0.29 100 1013.9
20260901025029 77 156 0.0 2.0 0.00 0.30 0.29 100 1014.0
20260901024546 77 0 0.0 4.0 0.00 0.30 0.29 100 1013.9
20260901024029 77 152 1.0 5.0 0.00 0.30 0.29 100 1014.0
20260901023526 77 207 2.0 5.0 0.00 0.30 0.29 100 1014.0
20260901023043 77 142 1.0 5.0 0.00 0.30 0.29 100 1013.9
20260901022526 76 210 1.0 5.0 0.00 0.30 0.29 100 1014.0
20260901022033 76 200 1.0 3.0 0.00 0.30 0.29 100 1014.0
20260901021542 76 162 0.0 1.0 0.00 0.30 0.29 100 1014.1
20260901021030 76 0 0.0 1.0 0.00 0.30 0.29 100 1014.1
20260901020530 76 0 0.0 1.0 0.00 0.30 0.29 100 1014.1
20260901020042 76 0 0.0 1.0 0.00 0.30 0.29 100 1014.0
20260901015529 76 0 0.0 0.0 0.00 0.31 0.29 100 1014.0
20260901015028 76 0 0.0 0.0 0.00 0.31 0.29 100 1014.0
20260901014559 76 0 0.0 0.0 0.00 0.31 0.29 100 1014.0
20260901014026 76 0 0.0 0.0 0.00 0.31 0.29 100 1014.0
20260901013527 75 0 0.0 0.0 0.00 0.31 0.29 100 1013.8
20260901013043 75 0 0.0 0.0 0.00 0.31 0.29 100 1013.9
20260901012526 76 0 0.0 0.0 0.00 0.31 0.29 100 1013.9
20260901012026 76 0 0.0 0.0 0.00 0.31 0.29 100 1013.8
20260901011541 76 0 0.0 0.0 0.00 0.31 0.29 100 1013.6
20260901011030 76 0 0.0 0.0 0.00 0.31 0.29 100 1013.6
20260901010527 76 0 0.0 0.0 0.00 0.31 0.29 100 1013.7
20260901010053 76 0 0.0 0.0 0.00 0.31 0.29 100 1013.7
20260901005527 76 0 0.0 0.0 0.00 0.31 0.29 100 1013.5
20260901005027 76 0 0.0 1.0 0.00 0.31 0.29 100 1013.5
20260901004548 76 0 0.0 3.0 0.00 0.31 0.29 100 1013.5
20260901004026 76 0 0.0 3.0 0.06 0.31 0.29 100 1013.4
20260901003528 76 165 0.0 3.0 0.07 0.31 0.29 100 1013.3
20260901003045 76 0 0.0 3.0 0.07 0.31 0.29 100 1013.3
20260901002529 76 226 0.0 3.0 0.07 0.31 0.29 100 1013.2
20260901002032 77 176 0.0 3.0 0.07 0.31 0.29 100 1013.3
20260901001551 77 150 0.0 4.0 0.07 0.31 0.29 100 1013.2
20260901001027 77 200 1.0 6.0 0.07 0.31 0.29 99 1013.3
20260901000528 77 191 2.0 8.0 0.07 0.31 0.29 99 1013.2
20260901000051 78 162 3.0 11.0 0.07 0.31 0.29 99 1013.2
20260831235526 78 172 4.0 11.0 0.07 0.31 0.29 98 1013.1
20260831235028 79 141 4.0 10.0 0.07 0.31 0.29 99 1013.1
20260831234552 79 157 3.0 7.0 0.07 0.31 0.29 99 1012.9
20260831234028 79 139 2.0 4.0 0.03 0.24 0.22 100 1013.6
20260831233529 79 62 0.0 3.0 0.03 0.24 0.22 100 1014.6
20260831233108 80 25 0.0 0.0 0.03 0.24 0.22 99 1014.2
20260831232528 80 0 0.0 0.0 0.03 0.24 0.22 99 1013.8
20260831232029 80 0 0.0 0.0 0.03 0.24 0.22 99 1013.7
20260831231546 80 0 0.0 0.0 0.03 0.24 0.22 99 1013.6
20260831231029 81 0 0.0 2.0 0.03 0.24 0.22 99 1013.5
20260831230529 80 0 0.0 2.0 0.03 0.24 0.22 98 1013.2
20260831230043 81 0 1.0 2.0 0.03 0.24 0.22 97 1013.1
20260831225527 82 198 0.0 1.0 0.03 0.24 0.22 95 1013.3
20260831225029 84 0 0.0 1.0 0.03 0.24 0.22 93 1013.2
20260831224554 88 0 0.0 3.0 0.03 0.24 0.22 88 1013.3
20260831224029 89 0 0.0 3.0 0.00 0.21 0.19 71 1013.5
20260831223529 89 224 0.0 3.0 0.00 0.21 0.19 70 1013.3
20260831223040 89 221 0.0 4.0 0.00 0.21 0.19 70 1013.4
20260831222529 90 0 0.0 4.0 0.00 0.21 0.19 70 1013.2
20260831222029 90 238 1.0 4.0 0.00 0.21 0.19 69 1013.1
20260831221549 90 203 2.0 6.0 0.00 0.21 0.19 69 1012.9
20260831221029 90 149 2.0 8.0 0.00 0.21 0.19 69 1012.8
20260831220531 90 240 3.0 8.0 0.00 0.21 0.19 68 1012.8